Radiation Dose at Monitoring Post of Fukushima Daini Nuclear Power Station
Date,Time,MP-1(microSv/h),MP-2(microSv/h),MP-3(microSv/h),MP-4(microSv/h),MP-5(microSv/h),MP-6(microSv/h),MP-7(microSv/h),Wind Direction,Wind Velocity(m/s),Rain
2020/12/04,00:00,0.178,0.159,0.260,0.246,0.239,0.140,0.085,northwest,9.0,No
2020/12/04,00:10,0.178,0.159,0.261,0.245,0.240,0.141,0.086,northwest,6.5,No
2020/12/04,00:20,0.177,0.159,0.260,0.245,0.240,0.141,0.086,north-northwest,3.9,No
2020/12/04,00:30,0.178,0.160,0.259,0.245,0.240,0.141,0.086,north-northwest,6.7,No
2020/12/04,00:40,0.176,0.159,0.260,0.246,0.241,0.140,0.086,north-northwest,7.3,No
2020/12/04,00:50,0.177,0.159,0.259,0.244,0.240,0.140,0.085,north-northwest,6.5,No
2020/12/04,01:00,0.177,0.160,0.258,0.244,0.239,0.141,0.084,north-northwest,6.3,No
2020/12/04,01:10,0.176,0.160,0.259,0.244,0.239,0.141,0.085,north-northwest,5.7,No
2020/12/04,01:20,0.176,0.158,0.257,0.245,0.238,0.140,0.085,north-northwest,5.8,No
2020/12/04,01:30,0.177,0.159,0.259,0.245,0.239,0.140,0.085,northwest,6.0,No
2020/12/04,01:40,0.176,0.159,0.259,0.245,0.238,0.141,0.085,northwest,6.0,No
2020/12/04,01:50,0.177,0.159,0.258,0.244,0.239,0.141,0.085,northwest,6.6,No
2020/12/04,02:00,0.176,0.158,0.258,0.245,0.239,0.140,0.085,northwest,6.5,No
2020/12/04,02:10,0.177,0.157,0.258,0.244,0.239,0.140,0.084,north-northwest,5.8,No
2020/12/04,02:20,0.176,0.158,0.258,0.243,0.239,0.140,0.085,northwest,7.9,No
2020/12/04,02:30,0.176,0.159,0.258,0.242,0.238,0.140,0.084,northwest,8.1,No
2020/12/04,02:40,0.176,0.157,0.258,0.245,0.240,0.141,0.084,northwest,9.5,No
2020/12/04,02:50,0.177,0.158,0.258,0.244,0.239,0.140,0.085,northwest,9.2,No
2020/12/04,03:00,0.177,0.159,0.259,0.244,0.238,0.141,0.084,northwest,14.6,No
2020/12/04,03:10,0.176,0.159,0.258,0.243,0.239,0.140,0.085,northwest,16.3,No
2020/12/04,03:20,0.177,0.158,0.258,0.244,0.239,0.141,0.085,northwest,14.3,No
2020/12/04,03:30,0.177,0.159,0.258,0.244,0.238,0.139,0.085,northwest,12.6,No
2020/12/04,03:40,0.176,0.158,0.259,0.244,0.239,0.140,0.085,northwest,10.7,No
2020/12/04,03:50,0.177,0.160,0.259,0.245,0.239,0.140,0.085,northwest,10.9,No
2020/12/04,04:00,0.177,0.159,0.258,0.244,0.239,0.140,0.085,west-northwest,9.8,No
2020/12/04,04:10,0.177,0.159,0.260,0.244,0.240,0.140,0.084,west-northwest,10.1,No
2020/12/04,04:20,0.176,0.159,0.259,0.244,0.239,0.140,0.085,west-northwest,9.6,No
2020/12/04,04:30,0.177,0.159,0.259,0.244,0.238,0.140,0.085,northwest,10.6,No
2020/12/04,04:40,0.178,0.159,0.258,0.245,0.238,0.140,0.085,west-northwest,10.3,No
2020/12/04,04:50,0.177,0.158,0.259,0.244,0.238,0.140,0.086,northwest,7.5,No
2020/12/04,05:00,0.176,0.159,0.260,0.244,0.238,0.141,0.085,northwest,6.1,No
2020/12/04,05:10,0.177,0.158,0.260,0.244,0.239,0.139,0.085,west-northwest,5.9,No
2020/12/04,05:20,0.177,0.158,0.259,0.244,0.239,0.140,0.085,west-northwest,4.9,No
2020/12/04,05:30,0.177,0.159,0.257,0.244,0.239,0.141,0.085,west-northwest,4.2,No
2020/12/04,05:40,0.177,0.159,0.258,0.244,0.238,0.140,0.085,west-northwest,3.2,No
2020/12/04,05:50,0.177,0.158,0.258,0.244,0.238,0.140,0.085,west,4.2,No
2020/12/04,06:00,0.176,0.159,0.259,0.244,0.239,0.139,0.085,west-northwest,4.5,No
2020/12/04,06:10,0.177,0.159,0.259,0.243,0.241,0.140,0.084,west,3.7,No
2020/12/04,06:20,0.177,0.158,0.259,0.244,0.239,0.139,0.084,west-northwest,3.5,No
2020/12/04,06:30,0.177,0.158,0.259,0.245,0.238,0.140,0.085,west-northwest,2.3,No
2020/12/04,06:40,0.177,0.158,0.259,0.245,0.239,0.140,0.085,west-northwest,3.9,No
2020/12/04,06:50,0.177,0.159,0.258,0.246,0.239,0.140,0.085,west-northwest,2.8,No
2020/12/04,07:00,0.176,0.158,0.258,0.245,0.238,0.140,0.084,west-northwest,2.4,No
2020/12/04,07:10,0.178,0.157,0.260,0.245,0.239,0.140,0.085,west,2.9,No
2020/12/04,07:20,0.176,0.158,0.259,0.244,0.239,0.140,0.085,west-northwest,1.5,No
2020/12/04,07:30,0.175,0.158,0.259,0.244,0.239,0.140,0.084,west-northwest,1.3,No
2020/12/04,07:40,0.177,0.158,0.259,0.243,0.239,0.139,0.085,northwest,2.3,No
2020/12/04,07:50,0.177,0.158,0.259,0.243,0.240,0.141,0.086,west-northwest,2.5,No
2020/12/04,08:00,0.176,0.159,0.258,0.243,0.239,0.140,0.084,west-northwest,2.0,No
2020/12/04,08:10,0.177,0.159,0.259,0.243,0.239,0.141,0.085,west-northwest,1.5,No
2020/12/04,08:20,0.177,0.158,0.258,0.244,0.239,0.140,0.085,west-northwest,2.1,No
2020/12/04,08:30,0.176,0.159,0.259,0.243,0.239,0.140,0.085,west-northwest,2.0,No
2020/12/04,08:40,0.176,0.159,0.258,0.242,0.240,0.139,0.084,west,1.9,No
2020/12/04,08:50,0.176,0.157,0.258,0.244,0.237,0.139,0.085,west-northwest,3.2,No
2020/12/04,09:00,0.176,0.158,0.260,0.243,0.239,0.140,0.084,west-northwest,3.5,No
2020/12/04,09:10,0.177,0.159,0.259,0.243,0.239,0.139,0.084,west-northwest,4.5,No
2020/12/04,09:20,0.176,0.158,0.257,0.243,0.239,0.140,0.084,west-northwest,4.3,No
2020/12/04,09:30,0.176,0.158,0.257,0.243,0.239,0.139,0.084,west-northwest,5.0,No
2020/12/04,09:40,0.176,0.158,0.259,0.242,0.240,0.140,0.085,west-northwest,3.5,No
2020/12/04,09:50,0.176,0.158,0.259,0.243,0.238,0.139,0.085,west-northwest,2.9,No
2020/12/04,10:00,0.176,0.158,0.257,0.243,0.240,0.140,0.084,west-northwest,2.6,No
2020/12/04,10:10,0.176,0.159,0.259,0.243,0.238,0.140,0.085,northwest,2.8,No
2020/12/04,10:20,0.177,0.158,0.258,0.245,0.240,0.140,0.085,northwest,2.3,No
2020/12/04,10:30,0.175,0.157,0.258,0.244,0.239,0.140,0.085,northwest,2.9,No
2020/12/04,10:40,0.176,0.158,0.257,0.244,0.238,0.140,0.084,west-northwest,3.5,No
2020/12/04,10:50,0.176,0.157,0.259,0.245,0.240,0.139,0.084,northwest,2.4,No
2020/12/04,11:00,0.176,0.159,0.257,0.244,0.239,0.139,0.085,northwest,2.2,No
2020/12/04,11:10,0.176,0.158,0.258,0.244,0.240,0.140,0.084,west-northwest,2.3,No
2020/12/04,11:20,0.176,0.157,0.259,0.244,0.239,0.140,0.085,west-northwest,2.5,No
2020/12/04,11:30,0.176,0.158,0.258,0.243,0.239,0.139,0.085,west-northwest,2.5,No
2020/12/04,11:40,0.177,0.159,0.258,0.244,0.241,0.139,0.084,northwest,2.9,No
2020/12/04,11:50,0.176,0.158,0.259,0.243,0.239,0.140,0.084,northwest,3.9,No
2020/12/04,12:00,0.176,0.159,0.257,0.244,0.238,0.139,0.084,northwest,3.1,No
2020/12/04,12:10,0.177,0.158,0.259,0.244,0.240,0.140,0.085,northwest,3.3,No
2020/12/04,12:20,0.176,0.158,0.259,0.243,0.238,0.140,0.083,north-northwest,3.1,No
2020/12/04,12:30,0.177,0.159,0.258,0.243,0.240,0.139,0.084,northwest,2.2,No
2020/12/04,12:40,0.177,0.158,0.259,0.243,0.239,0.140,0.085,north-northwest,2.5,No
2020/12/04,12:50,0.176,0.159,0.258,0.244,0.239,0.140,0.084,northwest,2.7,No
2020/12/04,13:00,0.176,0.159,0.258,0.244,0.240,0.140,0.085,northwest,2.8,No
2020/12/04,13:10,0.175,0.159,0.259,0.244,0.238,0.140,0.085,west-northwest,2.7,No
2020/12/04,13:20,0.176,0.158,0.257,0.244,0.240,0.140,0.084,northwest,2.5,No
2020/12/04,13:30,0.177,0.159,0.257,0.243,0.239,0.140,0.084,northwest,2.7,No
2020/12/04,13:40,0.177,0.158,0.259,0.246,0.239,0.141,0.085,north-northwest,1.3,No
2020/12/04,13:50,0.176,0.159,0.259,0.244,0.240,0.141,0.084,northwest,1.5,No
2020/12/04,14:00,0.177,0.158,0.257,0.244,0.239,0.140,0.085,northwest,1.1,No
2020/12/04,14:10,0.176,0.158,0.259,0.245,0.239,0.140,0.085,west,2.9,No
2020/12/04,14:20,0.176,0.159,0.258,0.244,0.239,0.140,0.085,west-northwest,3.5,No
2020/12/04,14:30,0.177,0.160,0.259,0.243,0.239,0.140,0.085,west,3.8,No
2020/12/04,14:40,0.176,0.158,0.259,0.244,0.240,0.140,0.085,west-northwest,3.8,No
2020/12/04,14:50,0.176,0.158,0.260,0.244,0.239,0.140,0.084,northwest,3.3,No
2020/12/04,15:00,0.176,0.159,0.259,0.243,0.238,0.140,0.084,west-northwest,3.7,No
2020/12/04,15:10,0.177,0.159,0.258,0.245,0.239,0.141,0.085,west-northwest,6.3,No
2020/12/04,15:20,0.177,0.158,0.260,0.245,0.239,0.139,0.084,west-northwest,6.3,No
2020/12/04,15:30,0.176,0.158,0.258,0.244,0.239,0.139,0.085,west-northwest,7.3,No
2020/12/04,15:40,0.177,0.158,0.258,0.245,0.240,0.141,0.084,west-northwest,6.3,No
2020/12/04,15:50,0.177,0.158,0.259,0.245,0.239,0.140,0.085,west-northwest,6.8,No
2020/12/04,16:00,0.176,0.157,0.260,0.245,0.239,0.140,0.085,west-northwest,7.7,No
2020/12/04,16:10,0.177,0.158,0.257,0.244,0.238,0.139,0.084,west-northwest,5.6,No
2020/12/04,16:20,0.177,0.159,0.259,0.244,0.239,0.140,0.085,west-northwest,6.0,No
2020/12/04,16:30,0.177,0.159,0.260,0.245,0.240,0.140,0.084,west-northwest,7.4,No
2020/12/04,16:40,0.177,0.160,0.260,0.244,0.240,0.140,0.085,west-northwest,7.0,No
2020/12/04,16:50,0.177,0.159,0.259,0.245,0.240,0.140,0.085,west-northwest,5.9,No
2020/12/04,17:00,0.177,0.159,0.259,0.245,0.239,0.141,0.085,west-northwest,6.8,No
2020/12/04,17:10,0.177,0.159,0.259,0.244,0.239,0.140,0.085,west-northwest,4.4,No
2020/12/04,17:20,0.177,0.160,0.260,0.245,0.239,0.140,0.085,west-northwest,4.7,No
2020/12/04,17:30,0.177,0.160,0.258,0.243,0.239,0.140,0.084,west-northwest,5.3,No
2020/12/04,17:40,0.177,0.159,0.258,0.245,0.239,0.140,0.085,northwest,3.6,No
2020/12/04,17:50,0.177,0.160,0.259,0.245,0.239,0.140,0.084,northwest,3.2,No
2020/12/04,18:00,0.177,0.158,0.259,0.244,0.240,0.140,0.085,north-northwest,2.7,No
2020/12/04,18:10,0.177,0.158,0.259,0.244,0.239,0.140,0.085,north-northwest,2.3,No
2020/12/04,18:20,0.177,0.159,0.258,0.244,0.239,0.141,0.085,northwest,3.9,No
2020/12/04,18:30,0.177,0.159,0.260,0.245,0.240,0.141,0.085,northwest,5.7,No
2020/12/04,18:40,0.176,0.159,0.259,0.245,0.239,0.140,0.085,northwest,3.3,No
2020/12/04,18:50,0.178,0.159,0.259,0.244,0.239,0.140,0.085,west-northwest,2.8,No
2020/12/04,19:00,0.176,0.157,0.260,0.244,0.238,0.140,0.085,northwest,3.3,No
2020/12/04,19:10,0.177,0.158,0.258,0.245,0.239,0.140,0.085,northwest,3.2,No
2020/12/04,19:20,0.176,0.159,0.258,0.245,0.238,0.139,0.085,northwest,4.1,No
2020/12/04,19:30,0.177,0.159,0.260,0.246,0.240,0.140,0.085,northwest,5.1,No
2020/12/04,19:40,0.177,0.158,0.259,0.246,0.239,0.141,0.086,northwest,6.3,No
2020/12/04,19:50,0.177,0.159,0.259,0.245,0.240,0.140,0.085,northwest,5.9,No
2020/12/04,20:00,0.177,0.159,0.258,0.245,0.240,0.140,0.085,northwest,6.2,No
2020/12/04,20:10,0.177,0.159,0.259,0.244,0.240,0.141,0.085,northwest,7.0,No
2020/12/04,20:20,0.176,0.158,0.259,0.244,0.240,0.140,0.085,northwest,6.7,No
2020/12/04,20:30,0.176,0.158,0.259,0.245,0.238,0.140,0.085,northwest,6.5,No
2020/12/04,20:40,0.178,0.159,0.260,0.245,0.239,0.139,0.085,northwest,7.3,No
2020/12/04,20:50,0.177,0.160,0.260,0.246,0.240,0.141,0.085,north-northwest,6.8,No
2020/12/04,21:00,0.176,0.158,0.261,0.244,0.239,0.140,0.085,north-northwest,4.3,No
2020/12/04,21:10,0.177,0.158,0.259,0.245,0.240,0.142,0.085,north,3.2,No
2020/12/04,21:20,0.178,0.160,0.259,0.245,0.240,0.140,0.084,north-northwest,3.0,No
2020/12/04,21:30,0.176,0.159,0.260,0.245,0.239,0.140,0.085,north-northwest,2.2,No
2020/12/04,21:40,0.177,0.158,0.259,0.245,0.239,0.140,0.085,northwest,3.6,No
2020/12/04,21:50,0.177,0.159,0.259,0.245,0.239,0.140,0.085,northwest,4.0,No
2020/12/04,22:00,0.178,0.159,0.259,0.245,0.239,0.140,0.085,northwest,3.7,No
2020/12/04,22:10,0.177,0.159,0.259,0.244,0.240,0.140,0.085,west-northwest,3.7,No
2020/12/04,22:20,0.177,0.159,0.259,0.244,0.240,0.139,0.085,northwest,3.0,No
2020/12/04,22:30,0.177,0.159,0.260,0.245,0.240,0.140,0.085,northwest,3.3,No
2020/12/04,22:40,0.178,0.160,0.260,0.245,0.241,0.140,0.085,west-northwest,2.4,No
2020/12/04,22:50,0.176,0.159,0.259,0.245,0.239,0.140,0.084,west,2.6,No
2020/12/04,23:00,0.176,0.159,0.259,0.244,0.239,0.141,0.085,west,2.7,No
2020/12/04,23:10,0.177,0.159,0.260,0.243,0.241,0.141,0.085,west,2.9,No
2020/12/04,23:20,0.177,0.160,0.260,0.246,0.238,0.141,0.086,west,2.6,No
2020/12/04,23:30,0.178,0.159,0.259,0.244,0.240,0.139,0.085,-,CALM,No
2020/12/04,23:40,0.176,0.158,0.259,0.244,0.240,0.140,0.085,south-southeast,0.6,No
2020/12/04,23:50,0.177,0.160,0.259,0.246,0.240,0.141,0.085,-,CALM,No
